| time (UTC) | temp C | wind direction | speed KPH | gust KPH | rain 1hr cm | rain 24hr cm | rain mn cm | humidity % | barometer mb |
| 20260905200017 | 31 | 158 | 3.2 | 9.7 | 0.00 | 0.00 | 0.00 | 64 | 1014.7 |
| 20260905195017 | 31 | 135 | 4.8 | 9.7 | 0.00 | 0.00 | 0.00 | 64 | 1015.0 |
| 20260905194015 | 31 | 135 | 4.8 | 11.3 | 0.00 | 0.00 | 0.00 | 64 | 1015.0 |
| 20260905193037 | 31 | 135 | 3.2 | 8.0 | 0.00 | 0.00 | 0.00 | 64 | 1015.2 |
| 20260905192017 | 31 | 203 | 3.2 | 8.0 | 0.00 | 0.00 | 0.00 | 65 | 1015.4 |
| 20260905191017 | 31 | 135 | 4.8 | 9.7 | 0.00 | 0.00 | 0.00 | 65 | 1015.5 |
| 20260905190037 | 31 | 158 | 4.8 | 11.3 | 0.00 | 0.00 | 0.00 | 65 | 1015.5 |
| 20260905185037 | 31 | 0 | 1.6 | 3.2 | 0.00 | 0.00 | 0.00 | 64 | 1015.7 |
| 20260905184017 | 31 | 113 | 1.6 | 3.2 | 0.00 | 0.00 | 0.00 | 65 | 1015.7 |
| 20260905183017 | 31 | 135 | 3.2 | 9.7 | 0.00 | 0.00 | 0.00 | 66 | 1016.0 |
| 20260905182018 | 31 | 158 | 4.8 | 12.9 | 0.00 | 0.00 | 0.00 | 66 | 1016.2 |
| 20260905181137 | 30 | 68 | 3.2 | 8.0 | 0.00 | 0.00 | 0.00 | 69 | 1016.4 |
| 20260905180037 | 30 | 158 | 3.2 | 8.0 | 0.00 | 0.00 | 0.00 | 71 | 1016.7 |
| 20260905175017 | 31 | 135 | 3.2 | 9.7 | 0.00 | 0.00 | 0.00 | 69 | 1016.8 |
| 20260905174017 | 30 | 90 | 3.2 | 6.4 | 0.00 | 0.00 | 0.00 | 69 | 1016.9 |
| 20260905173017 | 30 | 45 | 3.2 | 6.4 | 0.00 | 0.00 | 0.00 | 68 | 1016.9 |
| 20260905172017 | 30 | 135 | 3.2 | 9.7 | 0.00 | 0.00 | 0.00 | 70 | 1016.9 |
| 20260905171017 | 30 | 135 | 8.0 | 14.5 | 0.00 | 0.00 | 0.00 | 70 | 1017.1 |
| 20260905170037 | 30 | 113 | 3.2 | 8.0 | 0.00 | 0.00 | 0.00 | 73 | 1017.1 |
| 20260905165017 | 28 | 23 | 3.2 | 9.7 | 0.00 | 0.00 | 0.00 | 73 | 1017.2 |
| 20260905164017 | 28 | 0 | 1.6 | 3.2 | 0.00 | 0.00 | 0.00 | 75 | 1017.2 |
| 20260905163016 | 28 | 0 | 3.2 | 4.8 | 0.00 | 0.00 | 0.00 | 73 | 1017.1 |
| 20260905162017 | 28 | 113 | 3.2 | 8.0 | 0.00 | 0.00 | 0.00 | 72 | 1017.4 |
| 20260905161017 | 28 | 0 | 4.8 | 14.5 | 0.00 | 0.00 | 0.00 | 72 | 1017.5 |
| 20260905160037 | 29 | 0 | 9.7 | 22.5 | 0.00 | 0.00 | 0.00 | 72 | 1017.5 |
| 20260905155017 | 29 | 23 | 3.2 | 8.0 | 0.00 | 0.00 | 0.00 | 73 | 1017.6 |
| 20260905154017 | 29 | 23 | 3.2 | 14.5 | 0.00 | 0.00 | 0.00 | 71 | 1017.6 |
| 20260905153017 | 30 | 180 | 1.6 | 4.8 | 0.00 | 0.00 | 0.00 | 70 | 1017.2 |
| 20260905152017 | 30 | 225 | 1.6 | 4.8 | 0.00 | 0.00 | 0.00 | 70 | 1016.9 |
| 20260905151016 | 29 | 225 | 3.2 | 6.4 | 0.00 | 0.00 | 0.00 | 73 | 1016.9 |
| 20260905150017 | 28 | 203 | 4.8 | 9.7 | 0.00 | 0.00 | 0.00 | 73 | 1016.8 |
| 20260905145017 | 29 | 225 | 3.2 | 11.3 | 0.00 | 0.00 | 0.00 | 71 | 1017.0 |
| 20260905144016 | 28 | 203 | 3.2 | 6.4 | 0.00 | 0.00 | 0.00 | 72 | 1016.9 |
| 20260905143016 | 28 | 225 | 3.2 | 6.4 | 0.00 | 0.00 | 0.00 | 73 | 1017.0 |
| 20260905142017 | 28 | 135 | 1.6 | 3.2 | 0.00 | 0.00 | 0.00 | 73 | 1017.2 |
| 20260905141017 | 28 | 180 | 1.6 | 3.2 | 0.00 | 0.00 | 0.00 | 74 | 1017.2 |
| 20260905140016 | 27 | 180 | 1.6 | 3.2 | 0.00 | 0.00 | 0.00 | 76 | 1017.2 |
| 20260905135016 | 27 | 180 | 1.6 | 3.2 | 0.00 | 0.00 | 0.00 | 77 | 1017.0 |
| 20260905134016 | 26 | 225 | 1.6 | 3.2 | 0.00 | 0.00 | 0.00 | 78 | 1017.1 |
| 20260905133016 | 26 | 0.0 | 3.2 | 0.00 | 0.00 | 0.00 | 84 | 1017.2 | |
| 20260905132016 | 25 | 0.0 | 3.2 | 0.00 | 0.00 | 0.00 | 85 | 1017.2 | |
| 20260905131016 | 24 | 0.0 | 3.2 | 0.00 | 0.00 | 0.00 | 86 | 1017.2 | |
| 20260905130017 | 23 | 0.0 | 3.2 | 0.00 | 0.00 | 0.00 | 90 | 1017.3 | |
| 20260905125017 | 22 | 0.0 | 1.6 | 0.00 | 0.00 | 0.00 | 91 | 1017.6 | |
| 20260905124017 | 22 | 0.0 | 1.6 | 0.00 | 0.00 | 0.00 | 92 | 1017.5 | |
| 20260905123016 | 22 | 135 | 1.6 | 3.2 | 0.00 | 0.00 | 0.00 | 93 | 1017.5 |
| 20260905122016 | 21 | 0.0 | 0.0 | 0.00 | 0.00 | 0.00 | 93 | 1017.3 | |
| 20260905121016 | 21 | 0.0 | 1.6 | 0.00 | 0.00 | 0.00 | 94 | 1017.2 | |
| 20260905120016 | 21 | 135 | 1.6 | 3.2 | 0.00 | 0.00 | 0.00 | 95 | 1017.1 |
| 20260905115016 | 20 | 0.0 | 0.0 | 0.00 | 0.00 | 0.00 | 95 | 1017.2 | |
| 20260905114016 | 20 | 0.0 | 3.2 | 0.00 | 0.00 | 0.00 | 94 | 1016.9 | |
| 20260905113016 | 20 | 0.0 | 0.0 | 0.00 | 0.00 | 0.00 | 94 | 1017.0 | |
| 20260905112016 | 20 | 0.0 | 0.0 | 0.00 | 0.00 | 0.00 | 94 | 1016.9 | |
| 20260905111036 | 20 | 0.0 | 3.2 | 0.00 | 0.00 | 0.00 | 94 | 1016.5 | |
| 20260905110016 | 20 | 0.0 | 0.0 | 0.00 | 0.00 | 0.00 | 94 | 1016.6 | |
| 20260905105016 | 20 | 0.0 | 0.0 | 0.00 | 0.00 | 0.00 | 94 | 1016.6 | |
| 20260905104036 | 20 | 0.0 | 3.2 | 0.00 | 0.00 | 0.00 | 94 | 1016.5 | |
| 20260905103016 | 20 | 0 | 1.6 | 1.6 | 0.00 | 0.00 | 0.00 | 94 | 1016.5 |
| 20260905102016 | 20 | 0.0 | 3.2 | 0.00 | 0.00 | 0.00 | 94 | 1016.5 | |
| 20260905101016 | 20 | 0.0 | 3.2 | 0.00 | 0.00 | 0.00 | 94 | 1016.4 | |
| 20260905100036 | 20 | 0.0 | 3.2 | 0.00 | 0.00 | 0.00 | 93 | 1016.5 | |
| 20260905095016 | 20 | 0.0 | 3.2 | 0.00 | 0.00 | 0.00 | 94 | 1016.5 | |
| 20260905094016 | 20 | 0.0 | 3.2 | 0.00 | 0.00 | 0.00 | 94 | 1016.3 | |
| 20260905093016 | 21 | 0.0 | 1.6 | 0.00 | 0.00 | 0.00 | 94 | 1016.2 | |
| 20260905092016 | 21 | 0.0 | 3.2 | 0.00 | 0.00 | 0.00 | 94 | 1016.2 | |
| 20260905091016 | 21 | 0.0 | 3.2 | 0.00 | 0.00 | 0.00 | 94 | 1016.1 | |
| 20260905090016 | 21 | 0.0 | 3.2 | 0.00 | 0.00 | 0.00 | 93 | 1016.0 | |
| 20260905085016 | 21 | 0.0 | 3.2 | 0.00 | 0.00 | 0.00 | 93 | 1016.1 | |
| 20260905084016 | 21 | 0.0 | 3.2 | 0.00 | 0.00 | 0.00 | 93 | 1016.2 | |
| 20260905083016 | 21 | 0.0 | 1.6 | 0.00 | 0.00 | 0.00 | 93 | 1016.3 | |
| 20260905082016 | 21 | 338 | 1.6 | 3.2 | 0.00 | 0.00 | 0.00 | 93 | 1016.2 |
| 20260905081016 | 21 | 0.0 | 1.6 | 0.00 | 0.00 | 0.00 | 93 | 1016.5 | |
| 20260905080036 | 21 | 0.0 | 0.0 | 0.00 | 0.00 | 0.00 | 93 | 1016.4 | |
| 20260905075016 | 21 | 0.0 | 1.6 | 0.00 | 0.00 | 0.00 | 93 | 1016.5 | |
| 20260905074016 | 21 | 0.0 | 1.6 | 0.00 | 0.00 | 0.00 | 93 | 1016.7 | |
| 20260905073036 | 21 | 0 | 1.6 | 3.2 | 0.00 | 0.00 | 0.00 | 92 | 1016.8 |
| 20260905072016 | 21 | 0.0 | 3.2 | 0.00 | 0.00 | 0.00 | 92 | 1016.9 | |
| 20260905071023 | 21 | 0.0 | 3.2 | 0.00 | 0.00 | 0.00 | 92 | 1017.0 | |
| 20260905070035 | 21 | 0.0 | 3.2 | 0.00 | 0.00 | 0.00 | 92 | 1017.0 | |
| 20260905065015 | 21 | 0.0 | 1.6 | 0.00 | 0.00 | 0.00 | 92 | 1017.1 | |
| 20260905064015 | 22 | 0.0 | 1.6 | 0.00 | 0.00 | 0.00 | 92 | 1017.1 | |
| 20260905063016 | 22 | 0.0 | 3.2 | 0.00 | 0.00 | 0.00 | 92 | 1017.1 | |
| 20260905062035 | 22 | 0 | 1.6 | 1.6 | 0.00 | 0.00 | 0.00 | 91 | 1017.3 |
| 20260905061015 | 22 | 0.0 | 3.2 | 0.00 | 0.00 | 0.00 | 91 | 1017.4 | |
| 20260905060036 | 22 | 0.0 | 3.2 | 0.00 | 0.00 | 0.00 | 91 | 1017.5 | |
| 20260905055035 | 22 | 0.0 | 3.2 | 0.00 | 0.00 | 0.00 | 91 | 1017.5 | |
| 20260905054017 | 22 | 0.0 | 3.2 | 0.00 | 0.00 | 0.00 | 91 | 1017.6 | |
| 20260905053017 | 22 | 0.0 | 1.6 | 0.00 | 0.00 | 0.00 | 91 | 1017.6 | |
| 20260905052017 | 22 | 0.0 | 3.2 | 0.00 | 0.00 | 0.00 | 90 | 1017.5 | |
| 20260905051018 | 22 | 0.0 | 3.2 | 0.00 | 0.00 | 0.00 | 91 | 1017.7 | |
| 20260905050037 | 22 | 0.0 | 3.2 | 0.00 | 0.00 | 0.00 | 91 | 1017.7 | |
| 20260905045017 | 22 | 0 | 1.6 | 1.6 | 0.00 | 0.00 | 0.00 | 90 | 1017.7 |
| 20260905044017 | 22 | 23 | 1.6 | 1.6 | 0.00 | 0.00 | 0.00 | 90 | 1017.7 |
| 20260905043037 | 22 | 0.0 | 3.2 | 0.00 | 0.00 | 0.00 | 89 | 1017.7 | |
| 20260905042017 | 23 | 0.0 | 0.0 | 0.00 | 0.00 | 0.00 | 89 | 1017.5 | |
| 20260905041017 | 23 | 0.0 | 1.6 | 0.00 | 0.00 | 0.00 | 89 | 1017.5 | |
| 20260905040017 | 23 | 0.0 | 3.2 | 0.00 | 0.00 | 0.00 | 90 | 1017.2 | |
| 20260905035016 | 23 | 0.0 | 1.6 | 0.00 | 0.00 | 0.00 | 90 | 1017.5 | |
| 20260905034016 | 23 | 113 | 1.6 | 1.6 | 0.00 | 0.00 | 0.00 | 90 | 1017.2 |
| 20260905033036 | 23 | 113 | 1.6 | 3.2 | 0.00 | 0.00 | 0.00 | 89 | 1016.9 |
| 20260905032016 | 23 | 0.0 | 0.0 | 0.00 | 0.00 | 0.00 | 89 | 1016.7 | |
| 20260905031036 | 23 | 0.0 | 1.6 | 0.00 | 0.00 | 0.00 | 88 | 1016.8 | |
| 20260905030016 | 23 | 0.0 | 0.0 | 0.00 | 0.00 | 0.00 | 88 | 1016.9 | |
| 20260905025036 | 23 | 0.0 | 3.2 | 0.00 | 0.00 | 0.00 | 88 | 1017.0 | |
| 20260905024016 | 23 | 0.0 | 1.6 | 0.00 | 0.00 | 0.00 | 87 | 1016.9 | |
| 20260905023016 | 23 | 0.0 | 3.2 | 0.00 | 0.00 | 0.00 | 87 | 1017.2 | |
| 20260905022016 | 24 | 0.0 | 1.6 | 0.00 | 0.00 | 0.00 | 85 | 1017.2 | |
| 20260905021016 | 24 | 0 | 1.6 | 1.6 | 0.00 | 0.00 | 0.00 | 84 | 1017.0 |
| 20260905020016 | 25 | 0.0 | 3.2 | 0.00 | 0.00 | 0.00 | 83 | 1017.1 | |
| 20260905015016 | 25 | 0.0 | 3.2 | 0.00 | 0.00 | 0.00 | 83 | 1017.2 | |
| 20260905014016 | 25 | 0.0 | 3.2 | 0.00 | 0.00 | 0.00 | 82 | 1017.0 | |
| 20260905013016 | 25 | 0.0 | 1.6 | 0.00 | 0.00 | 0.00 | 82 | 1016.7 | |
| 20260905012016 | 26 | 0.0 | 3.2 | 0.00 | 0.00 | 0.00 | 81 | 1016.9 | |
| 20260905011036 | 26 | 45 | 1.6 | 1.6 | 0.00 | 0.00 | 0.00 | 79 | 1017.0 |
| 20260905010016 | 26 | 338 | 1.6 | 3.2 | 0.00 | 0.00 | 0.00 | 78 | 1017.1 |
| 20260905005016 | 26 | 0.0 | 1.6 | 0.00 | 0.00 | 0.00 | 77 | 1017.0 | |
| 20260905004016 | 27 | 0.0 | 1.6 | 0.00 | 0.00 | 0.00 | 75 | 1017.0 | |
| 20260905003016 | 27 | 0.0 | 3.2 | 0.00 | 0.00 | 0.00 | 73 | 1016.9 | |
| 20260905002019 | 27 | 293 | 1.6 | 4.8 | 0.00 | 0.00 | 0.00 | 72 | 1017.0 |
| 20260905001016 | 27 | 0.0 | 3.2 | 0.00 | 0.00 | 0.00 | 72 | 1017.1 | |
| 20260905000016 | 27 | 0.0 | 3.2 | 0.00 | 0.00 | 0.00 | 74 | 1017.1 | |
| 20260904235015 | 27 | 23 | 1.6 | 6.4 | 0.00 | 0.00 | 0.00 | 76 | 1017.2 |
| 20260904234016 | 28 | 0.0 | 1.6 | 0.00 | 0.00 | 0.00 | 74 | 1016.9 | |
| 20260904233016 | 28 | 338 | 1.6 | 1.6 | 0.00 | 0.00 | 0.00 | 72 | 1017.0 |
| 20260904232016 | 29 | 338 | 1.6 | 1.6 | 0.00 | 0.00 | 0.00 | 73 | 1016.8 |
| 20260904231016 | 30 | 0.0 | 1.6 | 0.00 | 0.00 | 0.00 | 71 | 1016.7 | |
| 20260904230015 | 31 | 0.0 | 1.6 | 0.00 | 0.00 | 0.00 | 71 | 1016.8 | |
| 20260904225016 | 32 | 0.0 | 1.6 | 0.00 | 0.00 | 0.00 | 67 | 1016.8 | |
| 20260904224016 | 32 | 338 | 1.6 | 1.6 | 0.00 | 0.00 | 0.00 | 66 | 1016.7 |
| 20260904223035 | 32 | 338 | 1.6 | 1.6 | 0.00 | 0.00 | 0.00 | 66 | 1016.6 |
| 20260904222016 | 33 | 23 | 1.6 | 1.6 | 0.00 | 0.00 | 0.00 | 62 | 1016.6 |
| 20260904221116 | 33 | 0 | 1.6 | 1.6 | 0.00 | 0.00 | 0.00 | 60 | 1016.7 |
| 20260904220015 | 34 | 338 | 1.6 | 3.2 | 0.00 | 0.00 | 0.00 | 58 | 1016.7 |
| 20260904215017 | 34 | 0 | 3.2 | 4.8 | 0.00 | 0.00 | 0.00 | 55 | 1016.6 |
| 20260904214017 | 35 | 338 | 1.6 | 4.8 | 0.00 | 0.00 | 0.00 | 56 | 1016.7 |
| 20260904213017 | 34 | 45 | 1.6 | 3.2 | 0.00 | 0.00 | 0.00 | 56 | 1016.7 |
| 20260904212038 | 34 | 45 | 1.6 | 3.2 | 0.00 | 0.00 | 0.00 | 52 | 1016.7 |
| 20260904211017 | 35 | 338 | 1.6 | 3.2 | 0.00 | 0.00 | 0.00 | 51 | 1016.8 |
| 20260904210017 | 35 | 338 | 3.2 | 6.4 | 0.00 | 0.00 | 0.00 | 52 | 1016.8 |
| 20260904205027 | 35 | 293 | 1.6 | 4.8 | 0.00 | 0.00 | 0.00 | 52 | 1016.9 |
| 20260904204017 | 34 | 270 | 3.2 | 4.8 | 0.00 | 0.00 | 0.00 | 53 | 1016.9 |
| 20260904203017 | 34 | 0 | 1.6 | 6.4 | 0.00 | 0.00 | 0.00 | 53 | 1017.3 |
| 20260904202137 | 35 | 315 | 3.2 | 4.8 | 0.00 | 0.00 | 0.00 | 52 | 1017.6 |
| 20260904201017 | 35 | 293 | 1.6 | 4.8 | 0.00 | 0.00 | 0.00 | 52 | 1017.8 |